Location: Sobotiste
(48.7170°N, 17.4000°E)
Time: 08:45:19
(UTC+02:00)

YUBILEINY - Pass Details

Date: 16 March 2026
Orbit: 1477 x 1509 km, 82.5° (Epoch: 13 April)

Event Time Altitude Azimuth Distance (km) Brightness Sun altitude
Rises 01:07:59 0° 352° (N) 4,624 ? -40.8°
Reaches altitude 10° 01:11:40 10° 5° (N) 3,637 ? -40.6°
Maximum altitude 01:18:33 25° 58° (ENE) 2,635 ? -40.1°
Drops below altitude 10° 01:25:23 10° 111° (ESE) 3,613 ? -39.6°
Sets 01:28:59 0° 124° (SE) 4,588 ? -39.3°
